TimeEDT,TemperatureF,Dew PointF,Humidity,Sea Level PressureIn,VisibilityMPH,Wind Direction,Wind SpeedMPH,Gust SpeedMPH,PrecipitationIn,Events,Conditions,WindDirDegrees,DateUTC
12:53 AM,69.1,63.0,81,30.09,10.0,Calm,Calm,-,N/A,,Clear,0,2014-05-12 04:53:00
1:53 AM,68.0,63.0,84,30.09,10.0,WSW,3.5,-,N/A,,Clear,250,2014-05-12 05:53:00
2:53 AM,64.9,63.0,93,30.09,10.0,ENE,4.6,-,N/A,,Clear,60,2014-05-12 06:53:00
3:53 AM,64.9,63.0,93,30.08,10.0,Calm,Calm,-,N/A,,Scattered Clouds,0,2014-05-12 07:53:00
4:53 AM,64.9,62.1,90,30.09,10.0,Calm,Calm,-,N/A,,Scattered Clouds,0,2014-05-12 08:53:00
5:53 AM,63.0,62.1,97,30.09,8.0,Calm,Calm,-,N/A,,Scattered Clouds,0,2014-05-12 09:53:00
6:53 AM,63.0,62.1,97,30.12,7.0,East,3.5,-,N/A,Fog,Patches of Fog,80,2014-05-12 10:53:00
7:53 AM,66.0,64.0,93,30.14,8.0,Calm,Calm,-,N/A,,Mostly Cloudy,0,2014-05-12 11:53:00
8:53 AM,70.0,64.9,84,30.15,10.0,ENE,4.6,-,N/A,,Mostly Cloudy,70,2014-05-12 12:53:00
9:53 AM,73.4,64.4,73,30.18,10.0,NNE,3.5,-,N/A,,Mostly Cloudy,20,2014-05-12 13:53:00
10:53 AM,77.0,64.9,66,30.16,10.0,Variable,3.5,-,N/A,,Mostly Cloudy,0,2014-05-12 14:53:00
11:53 AM,80.1,66.0,62,30.16,10.0,Calm,Calm,-,N/A,,Mostly Cloudy,0,2014-05-12 15:53:00
12:53 PM,84.0,66.9,56,30.14,10.0,SW,11.5,-,N/A,,Mostly Cloudy,220,2014-05-12 16:53:00
1:53 PM,82.9,64.0,53,30.13,10.0,SW,12.7,18.4,N/A,,Mostly Cloudy,230,2014-05-12 17:53:00
2:53 PM,86.0,62.1,44,30.12,10.0,SSW,16.1,-,N/A,,Mostly Cloudy,210,2014-05-12 18:53:00
3:00 PM,87.1,63.0,44,30.15,10.0,SW,16.1,-,N/A,,Partly Cloudy,220,2014-05-12 19:00:00
3:53 PM,86.0,63.0,46,30.10,10.0,SW,12.7,-,N/A,,Mostly Cloudy,220,2014-05-12 19:53:00
4:53 PM,87.1,60.1,40,30.07,10.0,SSW,15.0,-,N/A,,Scattered Clouds,210,2014-05-12 20:53:00
5:53 PM,86.0,59.0,40,30.06,10.0,SW,11.5,-,N/A,,Scattered Clouds,230,2014-05-12 21:53:00
6:53 PM,84.9,61.0,44,30.05,10.0,West,6.9,-,N/A,,Scattered Clouds,260,2014-05-12 22:53:00
7:53 PM,82.0,61.0,49,30.07,10.0,WSW,6.9,-,N/A,,Mostly Cloudy,250,2014-05-12 23:53:00
8:53 PM,80.1,62.1,54,30.07,10.0,Calm,Calm,-,N/A,,Mostly Cloudy,0,2014-05-13 00:53:00
9:53 PM,75.9,64.0,67,30.08,10.0,SW,5.8,-,N/A,,Mostly Cloudy,230,2014-05-13 01:53:00
10:53 PM,73.4,64.4,73,30.12,10.0,ENE,5.8,-,N/A,,Mostly Cloudy,60,2014-05-13 02:53:00
11:53 PM,73.0,64.0,73,30.07,10.0,SE,5.8,-,N/A,,Mostly Cloudy,130,2014-05-13 03:53:00